TCHAT MGTT-MGGT

Flight info

Callsign TCHAT
Flight time N/A
Altitude 7500
Route DEPARTURE TO EAST // SHORT LDG AT CASA CAMPO STADIUM // SHORT LDG AT FINCA LAS NUBAS FIELD // SHORT LDG AT CERRO EL CERRITO // DCT BACK TO MGGT
Aircraft UH1/L-ICAO/L

Departure

Time N/A
Airport MGTT

Arrival

Time 2026-04-21 21:22
Airport La Aurora International Airport (MGGT)
Time Latitude Longitude Altitude Speed Heading
2026-04-21 21:21 14.58632 -90.52894 4924 ft 0 kts 19°
2026-04-21 21:28 14.58641 -90.52888 4935 ft 9 kts 351°
2026-04-21 21:28 14.58804 -90.52800 4946 ft 11 kts 71°
2026-04-21 21:29 14.58775 -90.52697 4944 ft 15 kts 84°
2026-04-21 21:29 14.58789 -90.52604 4949 ft 25 kts 28°
2026-04-21 21:29 14.59025 -90.52515 4981 ft 42 kts 20°
2026-04-21 21:29 14.59315 -90.52381 5032 ft 44 kts 28°
2026-04-21 21:30 14.59557 -90.52160 5083 ft 50 kts 45°
2026-04-21 21:30 14.59743 -90.51816 5148 ft 61 kts 54°
2026-04-21 21:30 14.59859 -90.51356 5213 ft 71 kts 60°
2026-04-21 21:30 14.59994 -90.50872 5344 ft 67 kts 65°
2026-04-21 21:31 14.60021 -90.50398 5450 ft 65 kts 85°
2026-04-21 21:31 14.59966 -90.49916 5521 ft 69 kts 82°
2026-04-21 21:31 14.59869 -90.49389 5540 ft 83 kts 94°
2026-04-21 21:31 14.59700 -90.48848 5665 ft 78 kts 114°
2026-04-21 21:32 14.59408 -90.48367 5795 ft 81 kts 123°
2026-04-21 21:32 14.59092 -90.47860 5886 ft 89 kts 117°
2026-04-21 21:32 14.58768 -90.47313 6012 ft 89 kts 112°
2026-04-21 21:32 14.58498 -90.46748 6227 ft 85 kts 104°
2026-04-21 21:33 14.58239 -90.46218 6343 ft 81 kts 120°
2026-04-21 21:33 14.57937 -90.45855 6494 ft 63 kts 138°
2026-04-21 21:33 14.57598 -90.45564 6496 ft 66 kts 122°
2026-04-21 21:33 14.57271 -90.45201 6529 ft 80 kts 129°
2026-04-21 21:34 14.56835 -90.44739 6609 ft 94 kts 126°
2026-04-21 21:34 14.56414 -90.44242 6699 ft 95 kts 120°
2026-04-21 21:34 14.55994 -90.43699 6676 ft 96 kts 112°
2026-04-21 21:34 14.55638 -90.43139 6710 ft 92 kts 111°
2026-04-21 21:35 14.55278 -90.42594 6712 ft 93 kts 119°
2026-04-21 21:35 14.54911 -90.42058 6710 ft 93 kts 107°
2026-04-21 21:35 14.54661 -90.41422 6702 ft 96 kts 90°
2026-04-21 21:35 14.54545 -90.40767 6677 ft 94 kts 92°
2026-04-21 21:36 14.54393 -90.40114 6633 ft 95 kts 84°
2026-04-21 21:36 14.54342 -90.39455 6713 ft 92 kts 76°
2026-04-21 21:36 14.54325 -90.38804 6755 ft 93 kts 80°
2026-04-21 21:36 14.54374 -90.38119 6733 ft 96 kts 72°
2026-04-21 21:37 14.54528 -90.37471 6896 ft 94 kts 64°
2026-04-21 21:37 14.54723 -90.36837 6989 ft 94 kts 61°
2026-04-21 21:37 14.54984 -90.36219 7071 ft 95 kts 50°
2026-04-21 21:37 14.55281 -90.35638 7208 ft 86 kts 50°
2026-04-21 21:38 14.55565 -90.35122 7419 ft 79 kts 50°
2026-04-21 21:38 14.55840 -90.34659 7529 ft 71 kts 53°
2026-04-21 21:38 14.56090 -90.34194 7677 ft 77 kts 49°
2026-04-21 21:38 14.56405 -90.33716 7751 ft 85 kts 55°
2026-04-21 21:39 14.56606 -90.33142 7885 ft 84 kts 64°
2026-04-21 21:39 14.56773 -90.32574 7991 ft 79 kts 56°
2026-04-21 21:39 14.57064 -90.32103 7999 ft 82 kts 32°
2026-04-21 21:39 14.57461 -90.31768 7890 ft 64 kts 25°
2026-04-21 21:40 14.57796 -90.31528 7740 ft 54 kts 24°
2026-04-21 21:40 14.58114 -90.31244 7604 ft 67 kts 30°
2026-04-21 21:40 14.58490 -90.30983 7554 ft 62 kts 14°
2026-04-21 21:40 14.58873 -90.30781 7469 ft 61 kts 17°
2026-04-21 21:41 14.59270 -90.30632 7329 ft 62 kts 13°
2026-04-21 21:41 14.59665 -90.30444 7189 ft 67 kts 21°
2026-04-21 21:41 14.60074 -90.30153 7161 ft 76 kts 26°
2026-04-21 21:41 14.60500 -90.29872 7086 ft 65 kts 21°
2026-04-21 21:42 14.60804 -90.29768 7072 ft 33 kts
2026-04-21 21:42 14.61074 -90.29703 7056 ft 40 kts
2026-04-21 21:42 14.61304 -90.29668 6963 ft 36 kts
2026-04-21 21:42 14.61575 -90.29656 6874 ft 38 kts 345°
2026-04-21 21:43 14.61801 -90.29665 6747 ft 28 kts 354°
2026-04-21 21:43 14.62022 -90.29616 6625 ft 33 kts 340°
2026-04-21 21:43 14.62195 -90.29724 6572 ft 27 kts 225°
2026-04-21 21:43 14.62143 -90.29807 6446 ft 5 kts 179°
2026-04-21 21:44 14.62120 -90.29818 6429 ft 2 kts 103°
2026-04-21 21:44 14.62117 -90.29815 6426 ft 0 kts 39°
2026-04-21 21:45 14.62223 -90.29814 6479 ft 41 kts 345°
2026-04-21 21:45 14.62471 -90.30113 6689 ft 73 kts 281°
2026-04-21 21:45 14.62320 -90.30621 6941 ft 71 kts 257°
2026-04-21 21:45 14.62132 -90.31049 7195 ft 66 kts 230°
2026-04-21 21:46 14.61709 -90.31332 7314 ft 76 kts 202°
2026-04-21 21:46 14.61212 -90.31587 7394 ft 80 kts 207°
2026-04-21 21:46 14.60711 -90.31895 7500 ft 86 kts 217°
2026-04-21 21:46 14.60294 -90.32310 7487 ft 82 kts 224°
2026-04-21 21:47 14.59862 -90.32675 7628 ft 84 kts 217°
2026-04-21 21:47 14.59338 -90.33037 7788 ft 95 kts 216°
2026-04-21 21:47 14.58758 -90.33430 7933 ft 105 kts 206°
2026-04-21 21:47 14.58106 -90.33843 8067 ft 112 kts 205°
2026-04-21 21:48 14.57493 -90.34291 8091 ft 103 kts 209°
2026-04-21 21:48 14.56955 -90.34535 7993 ft 68 kts 150°
2026-04-21 21:48 14.56760 -90.34241 7769 ft 54 kts 41°
2026-04-21 21:48 14.57060 -90.34119 7554 ft 47 kts 348°
2026-04-21 21:49 14.57296 -90.34213 7359 ft 29 kts 288°
2026-04-21 21:49 14.57299 -90.34325 7282 ft 3 kts 252°
2026-04-21 21:49 14.57296 -90.34332 7276 ft 0 kts 251°
2026-04-21 21:50 14.57288 -90.34345 7291 ft 10 kts 81°
2026-04-21 21:50 14.57382 -90.34065 7333 ft 68 kts 62°
2026-04-21 21:50 14.57213 -90.33527 7545 ft 95 kts 117°
2026-04-21 21:50 14.56691 -90.33045 7750 ft 112 kts 139°
2026-04-21 21:51 14.55989 -90.32717 8018 ft 115 kts 157°
2026-04-21 21:51 14.55137 -90.32608 8009 ft 129 kts 181°
2026-04-21 21:51 14.54274 -90.32765 7921 ft 116 kts 190°
2026-04-21 21:51 14.53553 -90.33083 7879 ft 115 kts 213°
2026-04-21 21:52 14.52928 -90.33608 7839 ft 118 kts 229°
2026-04-21 21:52 14.52357 -90.34226 7897 ft 120 kts 232°
2026-04-21 21:52 14.51834 -90.34884 7876 ft 125 kts 227°
2026-04-21 21:52 14.51266 -90.35537 8024 ft 120 kts 226°
2026-04-21 21:53 14.50713 -90.36176 8069 ft 118 kts 225°
2026-04-21 21:53 14.50169 -90.36820 8047 ft 124 kts 225°
2026-04-21 21:53 14.49579 -90.37470 8037 ft 124 kts 222°
2026-04-21 21:53 14.49007 -90.38107 8006 ft 120 kts 228°
2026-04-21 21:54 14.48443 -90.38773 7927 ft 123 kts 228°
2026-04-21 21:54 14.47903 -90.39457 7825 ft 124 kts 228°
2026-04-21 21:54 14.47357 -90.40131 7720 ft 119 kts 230°
2026-04-21 21:54 14.46826 -90.40874 7504 ft 134 kts 229°
2026-04-21 21:55 14.46227 -90.41614 7150 ft 133 kts 230°
2026-04-21 21:55 14.45613 -90.42307 6802 ft 128 kts 226°
2026-04-21 21:55 14.44977 -90.42924 6554 ft 123 kts 212°
2026-04-21 21:55 14.44342 -90.43391 6142 ft 105 kts 204°
2026-04-21 21:56 14.43744 -90.43781 5756 ft 99 kts 208°
2026-04-21 21:56 14.43177 -90.44123 5448 ft 91 kts 199°
2026-04-21 21:56 14.42664 -90.44412 5165 ft 78 kts 226°
2026-04-21 21:56 14.42343 -90.44758 4979 ft 58 kts 298°
2026-04-21 21:57 14.42431 -90.45110 4957 ft 41 kts 334°
2026-04-21 21:57 14.42612 -90.45178 4850 ft 15 kts 26°
2026-04-21 21:57 14.42684 -90.45149 4830 ft 7 kts 26°
2026-04-21 21:57 14.42696 -90.45132 4803 ft 0 kts 24°
2026-04-21 21:58 14.42703 -90.45115 4848 ft 10 kts 84°
2026-04-21 21:58 14.42371 -90.45191 4819 ft 86 kts 212°
2026-04-21 21:59 14.42114 -90.45726 4949 ft 87 kts 281°
2026-04-21 21:59 14.42370 -90.46251 5131 ft 81 kts 320°
2026-04-21 21:59 14.42826 -90.46643 5229 ft 90 kts 330°
2026-04-21 21:59 14.43388 -90.46934 5404 ft 91 kts 339°
2026-04-21 22:00 14.43936 -90.47155 5506 ft 80 kts 341°
2026-04-21 22:00 14.44437 -90.47333 5604 ft 69 kts 344°
2026-04-21 22:00 14.44899 -90.47443 5689 ft 71 kts 351°
2026-04-21 22:00 14.45386 -90.47495 5690 ft 68 kts 357°
2026-04-21 22:01 14.45827 -90.47615 5907 ft 64 kts 345°
2026-04-21 22:01 14.46294 -90.47778 5989 ft 77 kts 340°
2026-04-21 22:01 14.46838 -90.47888 6050 ft 83 kts 348°
2026-04-21 22:01 14.47367 -90.47954 6186 ft 71 kts 349°
2026-04-21 22:02 14.47865 -90.48009 6255 ft 72 kts 355°
2026-04-21 22:02 14.48329 -90.48039 6343 ft 65 kts 354°
2026-04-21 22:02 14.48775 -90.48115 6423 ft 68 kts 351°
2026-04-21 22:02 14.49286 -90.48159 6483 ft 78 kts 355°
2026-04-21 22:03 14.49825 -90.48169 6542 ft 75 kts
2026-04-21 22:03 14.50290 -90.48011 6672 ft 68 kts 10°
2026-04-21 22:03 14.50746 -90.48042 6710 ft 69 kts 352°
2026-04-21 22:03 14.51318 -90.48135 6633 ft 91 kts 350°
2026-04-21 22:04 14.51957 -90.48290 6575 ft 100 kts 341°
2026-04-21 22:04 14.52391 -90.48420 6551 ft 96 kts 339°